map of TBN home
Great Circle Mapper logo
TBN - Airport
Location
City:  Fort Leonard Wood, Missouri, United States
Name:Waynesville-St. Robert Regional Forney Field
ICAO:KTBN
IATA:TBN
FAA LID:TBN

Details
Type:Airport (Airfield)
Use:Public/Civil, Military
Latitude:3744'30"N (37.741631)
Longitude:9208'27"W (-92.140735)
Datum:WGS 1984
Elevation:1158 ft (353 m)
Variation:0.11E (WMM2015 magnetic declination)
-0.09 annual change
Runways:1
Longest:6038 × 150 ft (1840 × 45.5 m), paved

Time
Time Zone:UTC-6 (DST-5)
Local Time:

Weather
METAR:KTBN 280958Z AUTO 00000KT 10SM CLR 21/20 A2993 RMK AO2 SLP126 T02110201 $

Related Locations
Nearby:
Farthest:MQZ: 10897 mi / 17537 km
Margaret River [Margaret River Airport], WA, AU

Find:

   beyond  
but within

Other Information
Maps:
NOTAMs:
Links:
Sources:

  
flag of United States
flag of Missouri
  

Airport Diagram

Airport diagram for TBN

Airport diagram PDF

Sectional Chart

Flight Planning
at skyvector.com

Satellite Image

Google Maps Satellite view

 

Copyright © 2004-2016 Karl L. Swartz. All rights reserved.
The Great Circle Mapper name and logo are trademarks of the Great Circle Mapper.
All other trademarks mentioned herein belong to their respective owners.
Please see credits for attibutions and further copyright information.

  Follow gcmap on Facebook Follow gcmap on Twitter Follow gcmap on Google+ GCmap on LinkedIn

hCard Microformat

Geo Microformat